Вернуться в каталог

FENGYUN 1C DEB

АктивенSSO
NORAD 30392·DEBRIS·🇨🇳 China

Запущен May 10, 1999 с Taiyuan Satellite Launch Center

Loading…

Ближайшие Пролёты (ближайшие 24 часа)

TLE

СвежийSource: Space-Track

Эпоха: Sep 14, 2026, 00:45 UTC

1 30392U 99025ADF 26257.03170225  .00000574  00000-0  31410-3 0  9992
2 30392  98.7719 273.1071 0178694 300.6982  83.2072 14.08003566  5363

Отслеживайте FENGYUN 1C DEB в реальном времени с AllMySat

Download on the App Store